www.pogodaiklimat.ru
ПОГОДА в Милтоне
Время
и дата
08:56 19.05
09:56 19.05
10:56 19.05
11:56 19.05
12:56 19.05
13:56 19.05
14:56 19.05
15:56 19.05
16:56 19.05
17:56 19.05
18:56 19.05
19:56 19.05
20:56 19.05
21:56 19.05
22:56 19.05
05:56 20.05
06:56 20.05
07:56 20.05
08:56 20.05
09:56 20.05
12:56 20.05
13:56 20.05
14:56 20.05
15:56 20.05
16:56 20.05
17:56 20.05
18:56 20.05
19:56 20.05
20:56 20.05
21:56 20.05
22:56 20.05
05:56 23.05
06:56 23.05
07:56 23.05
08:56 23.05
09:56 23.05
10:37 23.05
10:56 23.05
11:46 23.05
11:56 23.05
12:46 23.05
12:56 23.05
13:56 23.05
14:56 23.05
15:56 23.05
16:56 23.05
17:56 23.05
18:56 23.05
Ветер
(напр.,м/с)
Видим. Явления Облачность Т
(С)
Тd
(С)
f
(%)
Тe
(С)
Тes
(С)
Комфортность P
(гПа)
Po
(гПа)
Тmin
(С)
Tmax
(С)
R
(мм)
R24
(мм)
S
(см)
нст 1 16 км 8/8 450 м
[Ci]
+26.7 +22.2 76 +35 +35 очень
душно
1013.9 1008.7
нст 1 16 км 8/8 м
[Ci]
+28.3 +21.7 67 +36 +38 очень
душно
1013.8 1008.4
нст 1 16 км 8/5 840 м
[Ci]
+29.4 +21.1 61 +37 +42 очень
душно
1013.3 1008.1
ЮЗ 1 16 км 8/5 1080 м
[Ci]
+29.4 +20.6 59 +36 +42 очень
душно
1012.7 1007.4
ЮЗ 2 16 км 8/5 1170 м
[Ci]
+30.6 +20.6 55 +38 +41 очень
душно
1012.1 1007.1 +23.9 +31.1
Ю 2 16 км 5/5 1200 м
[Ci]
+31.1 +21.1 55 +39 +44 очень
душно
1011.5 1006.4
Ю 3 16 км 8/5 1140 м
[Ci]
+30.6 +19.4 51 +36 +39 очень
душно
1011.1 1006.0
Ю 3 16 км 8/5 1350 м
[Ci]
+29.4 +20.0 57 +36 +37 очень
душно
1010.8 1005.7
ЮЗ 2 16 км 8/2 1500 м
[Ci]
+28.9 +20.0 59 +35 +38 очень
душно
1010.5 1005.4
Ю 3 16 км 8/5 750 м
[Ci]
+27.8 +20.6 65 +35 +35 очень
душно
1010.5 1005.4
Ю 2 16 км 8/2 750 м
[Ci]
+26.1 +21.1 74 +33 +34 очень
душно
1010.2 1005.0 +26.1 +32.2
Ю 1 16 км 8/2 750 м
[Ci]
+25.0 +21.7 82 +32 +32 очень
душно
1010.1 1004.7
Ю 1 16 км 8/2 750 м
[Ci]
+23.9 +21.1 84 +30 +30 очень
душно
1010.6 1005.4
штиль 0 16 км 8/2 690 м
[Ci]
+22.8 +21.1 90 +30 +30 очень
душно
1011.1 1005.7
В 1 16 км 8/2 690 м
[Ci]
+22.8 +21.1 90 +30 +30 очень
душно
1011.1 1005.7
ЮВ 1 13 км 5/2 720 м
[Ci]
+21.7 +20.6 93 +27 +27 душно 1010.8 1005.4
ЮВ 1 16 км 5/5 600 м
[Ci]
+23.3 +21.7 91 +32 +32 очень
душно
1011.4 1006.0 +21.7 +23.3
Ю 1 16 км 5/5 660 м
[Ci]
+26.1 +22.2 79 +34 +34 очень
душно
1011.7 1006.4
ЮВ 3 16 км 8/8 660 м
[Ci]
+27.8 +21.7 69 +36 +36 очень
душно
1012.1 1006.7
Ю 3 16 км 8/8 780 м
[Ci]
+28.3 +21.7 67 +36 +37 очень
душно
1012.4 1007.1
Ю 4 16 км 8/8 840 м
[Ac Ci Cb]
+28.3 +21.7 67 +36 +37 очень
душно
1012.6 1007.4 +23.3 +30.0
Ю 3 16 км 8/8 660 м
[Ac Cb]
+27.2 +22.2 74 +35 +37 очень
душно
1013.3 1008.1
Ю 2 16 км 8/5 780 м
[Ac Ci]
+27.8 +22.2 72 +36 +40 очень
душно
1012.4 1007.1
ЮЗ 1 16 км 8/5 750 м
[Ac Ci]
+28.3 +22.2 70 +37 +42 очень
душно
1012.4 1007.1
Ю 3
{4}
16 км 8/5 750 м
[Ac Ci]
+27.2 +21.7 72 +35 +37 очень
душно
1012.6 1007.4
Ю 2 16 км 8/5 840 м
[Ac Ci]
+27.8 +22.8 74 +37 +38 очень
душно
1012.4 1007.1
Ю 1 16 км 8/2 900 м
[Ac Ci]
+25.0 +20.6 77 +31 +32 очень
душно
1012.6 1007.4 +25.0 +30.0 0.3
ЮВ 1 16 км 5/2 900 м
[Ac Ci]
+23.3 +21.1 87 +31 +31 очень
душно
1012.9 1007.7
ЮВ 1 16 км 5/2 900 м
[Ac Ci]
+23.3 +21.7 91 +32 +32 очень
душно
1013.2 1008.1
ЮВ 1 16 км 5/5 870 м
[Ci]
+22.8 +21.7 94 +31 +31 очень
душно
1014.0 1008.7
ЮВ 1 16 км 5/5 900 м
[Ci]
+22.8 +21.7 94 +31 +31 очень
душно
1014.6 1009.4
штиль 0 16 км 8/5 150 м
[Ac Ci]
+20.6 +20.0 96 +25 +25 комфорт 1016.0 1010.4
СЗ 1 16 км 8/2 600 м
[Ac Ci]
+21.1 +20.6 97 +26 +26 душно 1016.5 1011.1 +20.6 +22.8 1.0 32.5
штиль 0 16 км 8/5 240 м
[Ac Ci]
+21.7 +20.6 93 +27 +28 душно 1016.8 1011.4
штиль 0 16 км 8/5 240 м
[Ac Ci]
+23.3 +21.1 87 +31 +33 очень
душно
1017.0 1011.8
штиль 0 16 км 8/5 300 м
[Ac Ci]
+25.0 +21.7 82 +32 +36 очень
душно
1016.7 1011.4 0.5
Ю 1 16 км 8/8 390 м
[Ac]
+26.1 +21.7 77 +34 +36 очень
душно
1012.1
ЮВ 1 16 км 8/8 450 м
[Ac]
+25.6 +22.2 82 +33 +36 очень
душно
1017.5 1012.1
Ю 2 16 км гроза 8/8 540 м
[Ac]
+27.2 +22.2 74 +35 +37 очень
душно
1012.1
Ю 3 16 км гроза 8/8 540 м
[Ac]
+26.7 +22.2 76 +35 +36 очень
душно
1017.5 1012.1
ЮЗ 3
{5}
14 км слабый дождь 8/8 540 м
[Ac Cb]
+21.1 +18.3 84 +25 +26 комфорт 1013.4
ЮЗ 2
{4}
16 км 8/8 540 м
[Ac Cb]
+21.0 +18.0 83 +25 +27 комфорт 1018.9 1013.4 +20.6 +27.2 2.0
Ю 3 16 км 8/5 600 м
[Ac Ci]
+22.8 +18.3 76 +28 +31 душно 1017.2 1011.8
нст 1 16 км 8/5 1650 м
[Ac Ci]
+23.3 +17.8 71 +29 +36 душно 1014.7 1009.4
З 1 16 км 8/0 3300 м
[Ac Ci]
+25.6 +17.2 60 +30 +39 душно 1013.1 1007.7
Ю 2 16 км 10/10 м
[Ac Ci]
+23.9 +19.4 76 +29 +29 душно 1014.0 1008.7
Ю 1 16 км 10/0 2100 м
[Ac Ci]
+23.9 +19.4 76 +29 +33 душно 1014.6 1009.1
Ю 1 16 км 10/0 3300 м
[Ac Ci]
+23.9 +19.4 76 +29 +30 душно 1014.9 1009.7 +21.1 +26.7
Местоположение метеостанции Whiting Field Naval Air Station North: широта 30.7285 долгота -87.0219 высота над уровнем моря 56 м.
В архиве по умолчанию представлена погода в Милтоне за последние 1-2 суток. Обновление информации о фактической погоде в базе происходит ежечасно! Архивные данные за месяц целиком и за предыдущие месяцы Вы можете получить, выбрав интересующий диапазон дат из раскрывающегося списка и нажав кнопку "Ввод!".
Внимание! Архив погоды МЕТАР в базе сайта по станциям, не включенным в климатический монитор, хранится не более 60 дней. Нет смысла пытаться выбрать более раннюю дату.
*Определитесь, кто Вы:
Внимание! Время в таблицах - местное (без учета летнего времени). Для получения всемирного времени необходимо вычесть поправку, которая равна -5 ч.
Смотрите также архив погоды в соседних городах и на ближайших метеорологических станциях:
Партнеры нашего сайта:      
Пояснения к столбцам:
  • Ветер - указаны скорость ветра в м/с - средняя за 10 мин, порывы в срок и между сроками (в фигурных скобках) и направление, откуда дует ветер: С - северный,
  • СВ - северо-восточный, В - восточный, ЮВ - юго-восточный, Ю - южный, ЮЗ - юго-западный, З - западный, СЗ - северо-западный.
  • Видимость - горизонтальная дальность видимости в метрах или километрах. При видимости от 1 до 10 км при отсутствии осадков обычно наблюдается дымка, при ухудшении видимости до 1 км и менее - туман. В сухую погоду видимость может ухудшаться дымом, пылью или мглою.
  • Явления - указаны атмосферные явления, наблюдавшиеся в срок или в последний час перед сроком; фигурными скобками обозначены явления, наблюдавшиеся между сроками (за 1-3 часа до срока); квадратными скобками обозначены град или гололедные отложения с указанием их диаметра в мм.
  • Облачность - указаны через наклонную черту общая и нижняя облачность в баллах и высота нижней границы облаков в метрах; квадратными скобками обозначены формы облаков: Ci - перистые, Cs - перисто-слоистые, Cc - перисто-кучевые, Ac - высококучевые, As - высокослоистые, Sc - слоисто-кучевые, Ns - слоисто-дождевые, Cu - кучевые, Cb - кучево-дождевые. Подробнее классификацию облаков см. в Атласе облаков (PDF).
  • T - Температура воздуха - температура, измеренная на высоте 2 м над землей.
  • Td - Температура точки росы - температура, при понижении до которой содержащийся в воздухе водяной пар достигнет насыщения.
  • f - Относительная влажность воздуха - влажноcть воздуха, измеренная на высоте 2 м над землей.
  • Te - Эффективная температура - температура, которую ощущает одетый по сезону человек в тени. Характеристика душности погоды. При расчете учитывается влияние влажности воздуха и скорости ветра на теплоощущения человека.
  • Tes - Эффективная температура на солнце - температура, которую ощущает человек, с поправкой на солнечный нагрев. Характеристика знойности погоды. Зависит от высоты солнца над горизонтом, облачности и скорости ветра. Ночью, в пасмурную погоду, а также при ветре 12 м/с и более поправка равна нулю.
  • P - Атмосферное давление - приведенное к уровню моря атмосферное давление.
  • Po - Атмосферное давление - измеренное на уровне метеостанции атмосферное давление.
  • Tmin - Минимальная температура - минимум температуры воздуха на высоте 2 м над землей.
  • Tmax - Максимальная температура - максимум температуры воздуха на высоте 2 м над землей.
  • R - Количество осадков - Количество выпавших осадков за период времени, мм. При наведении курсора мыши на число - период времени, за который выпало указанное количество осадков.
  • R24 - Количество осадков - Количество выпавших осадков за 24 часа, мм.
  • S - Снежный покров - Высота снежного покрова, см. При наведении курсора мыши на число - состояние снежного покрова и степень покрытия местности в баллах.